sat.trackr.live / text

‹ back to catalog

STARLINK-11330 [DTC]

NORAD 62011 · 2024-213D

PAYLOAD ACTIVE UNKNOWN

§ Identity

Operator
Country
US
Launch date
2024-11-18
Launch site
AFWTR
Launch vehicle
Mass (kg)
RCS (m²)

Purposes: comms

External: N2YO · Heavens-Above · Gunter

§ Orbital elements

Epoch: 2026-09-21T20:45:08.364960Z

Period
91.73 min
Inclination
53.1584°
Eccentricity
0.0001275
Mean motion
15.69781972 rev/d
Perigee alt
358.7 km
Apogee alt
360.4 km
Semi-major
6,737.7 km
B*
8.9970e-4
RAAN
154.4162°
Arg perigee
31.8250°
Mean anomaly
328.2845°
Rev number
10,572

§ Raw data

STARLINK-11330 [DTC]1 62011U 24213D   26264.86468015  .00110196  00000+0  89970-3 0  99932 62011  53.1584 154.4162 0001275  31.8250 328.2845 15.69781972105727

JSON: /api/v1/satellites/62011 · /tle

For live sub-satellite position, see the globe view (requires WebGL).

§ Visibility from observer

Set your observer location to see the next 7 days of passes ≥ 10°. The values pass through the URL so the page stays shareable.

No JS? Fill the form by hand. The geolocation button needs JavaScript.